Погода в Крупине

Россия / Республика Марий Эл     56°42′46″N   50°00′39″E
В апреле 2022 года жителям России запретили посещать сайт meteo.paraplan.net по решению Генеральной прокуратуры. Аудитория сайта уменьшилась в 10 раз. Владельцы сайта не видят смысла в поддержке погодного сервера в таких условиях. Сайт будет закрыт в октябре.
темп.,
°C
ветер,
м/с
пор.,
м/с
влажн.,
%
обл.,
%
осадки,
мм/ч
давл.,
гПа
погр.,
м
3 октября, пн
пн300:00+14ю61393100 0.0 1012458
03:00+13ю61390100 0.1 1012444
06:00+13ю61393100 1.1 1013476
09:00+14ю6157697 1.6 1014549
12:00+16ю71558100 0.0 1015677
15:00+17ю7155359 0.0 1016863
18:00+14ююв7165459 0.0 1017626
21:00+13ю717515 0.0 1019644
4 октября, вт
вт400:00+12ю61551100 0.0 1020513
03:00+10ююв51253100 0.0 1021380
06:00+10ююв51351100 0.0 1022392
09:00+11ююв51250100 0.0 1023608
12:00+11ю51456100 0.1 1025786
15:00+10ююв51263100 0.1 1025626
18:00+11ююв51347100 0.0 1025467
21:00+10ю51547100 0.0 1024527
5 октября, ср
ср500:00+9ююв3971100 0.2 1025368
03:00+9ю71268100 0.3 1025492
06:00+9ююв71362100 0.3 1024527
09:00+8ююв61273100 0.3 1023613
12:00+13ю695833 0.0 1022937
15:00+14ююв6105269 0.0 1020994
18:00+10ююв61455100 0.0 1020580
21:00+10ю61367100 0.4 1019734
6 октября, чт
чт600:00+9ю61275100 0.1 1017608
03:00+9ю51090100 1.4 1016568
06:00+9ю4986100 0.1 1015444
09:00+9юз488484 0.4 1015755
12:00+11юз565676 0.1 10141588
15:00+9зюз4772100 0.4 1014891
18:00+5зюз378517 0.1 1015232
21:00+6зюз3687100 0.1 1015364
7 октября, пт
пт700:00+6юз3789100 0.0 1014382
03:00+5юз3890100 0.0 1013247
06:00+3ююз4988100 0.0 1012216
09:00+6юз5881100 0.4 1011622
12:00+6юз51092100 1.3 1010601
15:00+9з598776 1.3 1009647
18:00+8зюз51388100 0.3 1010606
21:00+8з7128780 1.2 1010875